Location: Asheville, NC
(35.6000°N, 82.5500°W)
Time: 02:49:15
(UTC-05:00)

Envisat - Pass Details

Date: 11 February 2018
Orbit: 764 x 766 km, 98.2° (Epoch: 18 February)

Event Time Altitude Azimuth Distance (km) Brightness Sun altitude
Exits shadow 20:05:29 27° 164° (SSE) 1,443 4.2 -24.3°
Maximum altitude 20:08:20 87° 79° (E) 770 2.8 -24.9°
Drops below altitude 10° 20:13:26 10° 348° (NNW) 2,304 5.6 -25.9°
Sets 20:15:44 0° 348° (NNW) 3,234 6.4 -26.4°
